www.pogodaiklimat.ru

Погода и климат >> Архив погоды >> Финляндия >> Муонио Саммалтунтури


ПОГОДА в Муонио Саммалтунтури

  • Прогноз погоды в Муонио Саммалтунтури
  • Монитор погоды в Муонио Саммалтунтури

АРХИВ ПОГОДЫ в Муонио Саммалтунтури

Время (UTC), дата Ветер
(напр.,м/с)
 
Видим.   Явления Облачность Т
(С)
Тd
(С)
f
(%)
Тe
(С)
Тes
(С)
Комфортность P
(гПа)
Po
(гПа)
Тmin
(С)
Tmax
(С)
R
(мм)
R24
(мм)
S
(см)
01 10.06 ЮВ 3 100 м осадки н/о +5.5 +5.5 100 +2 +2 1003.4 937.2
02 10.06 ЮВ 5 100 м осадки н/о +5.3 +5.3 100 0 0 1002.8 936.6
03 10.06 ЮВ 3-4
{6}
100 м осадки н/о +6.0 +6.0 100 +2 +2 1001.8 935.8
04 10.06 Ю 5-6
{7}
<100 м осадки н/о +7.8 +7.8 100 +4 +4 1001.0 935.4
05 10.06 З 6 <100 м дождь н/о +8.2 +8.2 100 +4 +4 1000.8 935.4
06 10.06 З 8-10
{10}
200 м осадки н/о +6.1 +6.1 100 0 0 1001.4 935.5 +5.1 +8.3
07 10.06 З 8-9
{10}
300 м дождь н/о +5.0 +5.0 100 -1 -1 1002.0 935.7
08 10.06 З 8 400 м морось н/о +4.9 +4.9 100 -1 -1 1002.6 936.3
09 10.06 СЗ 7-9
{10}
1000 м слаб. ливневой дождь н/о +4.6 +4.6 100 -1 -1 1003.5 937.0
10 10.06 СЗ 7 6000 м слаб. дождь н/о +4.5 +4.5 100 -2 -2 1004.3 937.7
11 10.06 СЗ 8 4900 м слаб. ливневой дождь н/о +3.8 +3.8 100 -3 -3 1005.3 938.6
12 10.06 С 8-11
{11}
40 км слаб. морось {дождь} н/о +2.3 +2.3 100 -5 -5 1007.2 940.0
13 10.06 С 8 15 км слаб. ливневой дождь н/о +1.5 +1.5 100 -6 -6 1008.0 940.5
14 10.06 С 9 12 км слаб. ливневой дождь н/о +1.3 +1.3 100 -6 -6 1009.1 941.5
15 10.06 С 10-14
{14}
17 км слаб. ливневой снег н/о +1.2 +1.2 100 -7 -7 1010.7 943.0
16 10.06 С 10-13
{15}
22 км слаб. ливневой дождь н/о +1.0 +1.0 100 -7 -7 1011.8 944.0
17 10.06 С 11 6000 м слаб. ливневой снег н/о +0.7 +0.7 100 -8 -8 1013.2 945.2
18 10.06 С 11-15
{17}
3000 м слаб. снег н/о -0.1 -0.1 100 -9 -9 1014.7 946.4 -0.1 +6.1
19 10.06 С 11 4500 м слаб. снег н/о -0.3 -0.3 100 -9 -9 1016.0 947.5
20 10.06 С 10-13
{15}
3500 м слаб. снег н/о -0.7 -0.7 100 -9 -9 1017.3 948.7
21 10.06 С 10-14
{16}
9000 м слаб. снег н/о -1.0 -1.0 100 -10 -10 1018.8 950.0
22 10.06 С 9-13
{15}
50 км в посл. час снег н/о -1.4 -1.4 100 -10 -10 1019.8 950.9
23 10.06 С 9 50 км н/о -2.0 -2.2 99 -11 -11 1020.8 951.6
00 11.06 С 9-12
{14}
50 км {ливн. осадки, снег} н/о -1.9 -2.2 98 -11 -11 1021.7 952.5
01 11.06 С 9-11
{14}
50 км н/о -1.9 -1.9 100 -11 -11 1022.3 953.1
02 11.06 С 10-14
{15}
45 км н/о -1.8 -2.1 98 -11 -11 1023.1 953.8
03 11.06 С 10-13
{14}
45 км н/о -1.2 -2.1 94 -10 -10 1023.8 954.6
04 11.06 С 8 40 км н/о -1.0 -2.1 92 -9 -9 1024.4 955.2
05 11.06 С 7-10
{12}
45 км н/о -0.6 -2.0 90 -8 -8 1025.3 956.2
06 11.06 С 7-10
{12}
35 км в посл. час снег {ливн. осадки} н/о -0.5 -1.0 96 -8 -8 1026.1 957.0 -2.2 +0.1
07 11.06 С 7 50 км в посл. час снег н/о -0.6 -1.3 95 -8 -8 1026.9 957.6
08 11.06 С 8 45 км н/о +0.8 -3.9 71 -6 -6 1027.3 958.4
09 11.06 С 8-12
{12}
50 км {ливн. осадки, метель} н/о +1.2 -4.7 65 -6 -6 1028.2 959.3
10 11.06 С 7-9
{10}
50 км н/о +1.5 -3.7 68 -5 -5 1028.7 959.8
11 11.06 С 6 40 км н/о +2.2 -3.5 66 -3 -3 1028.8 960.1
12 11.06 С 6-9
{11}
50 км {ливн. осадки, метель} н/о +2.9 -4.0 60 -2 -2 1028.8 960.3
13 11.06 СЗ 7 50 км н/о +3.5 -3.4 61 -2 -2 1028.6 960.3
14 11.06 СЗ 7-9
{12}
40 км осадки н/о +3.5 -2.6 64 -2 -2 1028.7 960.3
15 11.06 СЗ 6-8
{9}
50 км {ливн. осадки, осадки} н/о +4.0 -3.0 60 -1 -1 1028.8 960.5
16 11.06 С 6 50 км н/о +4.5 -3.9 54 -0 -0 1029.0 960.8
17 11.06 С 5 50 км н/о +4.1 -3.0 60 -0 -0 1029.3 961.0
18 11.06 С 6-8
{8}
50 км {ливн. осадки, осадки} н/о +3.8 -3.0 61 -1 -1 1029.8 961.4 -1.1 +4.9
19 11.06 С 6-8
{9}
50 км н/о +3.6 -2.6 64 -2 -2 1029.8 961.4
20 11.06 С 5 50 км н/о +3.2 -1.9 69 -2 -2 1030.1 961.5
21 11.06 С 2-4
{6}
50 км н/о +2.4 -1.8 74 -1 -1 1030.5 961.7
22 11.06 СЗ 3-3
{4}
50 км н/о +2.0 -1.6 77 -2 -2 1030.7 961.8
23 11.06 СЗ 3-4
{4}
50 км н/о +2.0 -1.8 76 -2 -2 1030.8 961.9
00 12.06 СЗ 3-4
{4}
50 км н/о +2.0 -1.8 76 -2 -2 1031.0 962.2
01 12.06 СЗ 3 50 км н/о +2.3 -2.1 73 -2 -2 1031.0 962.2
02 12.06 СЗ 3 50 км н/о +2.1 -1.9 75 -2 -2 1031.1 962.3
03 12.06 СЗ 1-2
{5}
50 км н/о +2.5 -1.2 77 +1 +1 1030.8 962.1
04 12.06 СЗ 2 50 км н/о +2.8 -0.9 77 -0 -0 1030.8 962.1
05 12.06 СВ 1 40 км н/о +4.1 -0.8 70 +3 +3 1030.5 962.2
06 12.06 СЗ 2-3
{4}
45 км н/о +4.3 -2.0 64 +2 +2 1030.6 962.3 +1.8 +4.7
07 12.06 З 4 50 км н/о +4.7 -2.1 61 +1 +1 1030.3 962.1
08 12.06 З 4-6
{6}
35 км н/о +5.4 -1.6 61 +2 +2 1030.2 962.2
09 12.06 З 2-4
{6}
35 км н/о +8.2 -0.9 53 +7 +7 1029.6 962.2
10 12.06 СЗ 3 50 км н/о +7.2 -1.7 53 +5 +5 1029.7 962.1
11 12.06 З 3 40 км н/о +8.3 -1.2 51 +6 +6 1028.9 961.7
12 12.06 ЮЗ 2-5
{6}
35 км н/о +10.3 -0.7 46 +9 +9 1027.9 961.2
13 12.06 З 3 45 км н/о +10.1 -2.2 42 +9 +9 1027.8 961.1
14 12.06 ЮЗ 3 45 км н/о +10.6 -1.6 43 +9 +9 1027.4 960.8
15 12.06 Ю 3-5
{5}
40 км н/о +11.5 -1.0 42 +10 +10 1026.7 960.4
16 12.06 Ю 3-5
{7}
45 км н/о +11.8 -1.3 40 +11 +11 1026.3 960.0
17 12.06 ЮВ 3 45 км н/о +11.8 -1.2 40 +11 +11 1025.9 959.7
18 12.06 ЮВ 5-7
{7}
45 км н/о +10.7 -0.3 46 +8 +8 1026.0 959.5 +4.2 +11.9
19 12.06 Ю 4 50 км н/о +10.0 -0.1 49 +8 +8 1026.1 959.4
20 12.06 Ю 6-7
{7}
50 км н/о +9.3 +0.5 54 +6 +6 1026.5 959.6
21 12.06 Ю 5-7
{7}
50 км н/о +9.0 +0.7 56 +6 +6 1026.6 959.7
22 12.06 Ю 6 50 км н/о +8.3 +1.8 64 +5 +5 1026.8 959.7
23 12.06 Ю 6 50 км н/о +7.5 +2.4 70 +3 +3 1026.8 959.5
00 13.06 ЮЗ 6-8
{8}
50 км н/о +6.5 +1.6 71 +2 +2 1026.8 959.3
01 13.06 ЮЗ 7-10
{10}
45 км н/о +6.6 -0.4 61 +2 +2 1027.0 959.5
02 13.06 ЮЗ 7-10
{11}
50 км н/о +6.7 -1.1 57 +2 +2 1027.1 959.6
03 13.06 ЮЗ 5-7
{10}
50 км н/о +6.9 -0.7 58 +3 +3 1026.8 959.4
04 13.06 ЮЗ 7 50 км н/о +6.9 -0.3 60 +2 +2 1026.5 959.1
05 13.06 ЮЗ 6-8
{9}
50 км н/о +7.5 0.0 59 +4 +4 1026.6 959.3
06 13.06 Ю 5-7
{7}
50 км н/о +7.7 +0.6 61 +4 +4 1026.4 959.2 +6.3 +10.7
07 13.06 ЮЗ 5-6
{7}
40 км н/о +8.8 +0.1 54 +6 +6 1026.0 959.1
08 13.06 Ю 4 40 км н/о +9.7 +0.4 52 +7 +7 1026.0 959.2
09 13.06 Ю 4-6
{7}
40 км н/о +11.3 0.0 46 +9 +9 1025.5 959.1
10 13.06 Ю 5-7
{8}
35 км н/о +11.9 +0.2 45 +10 +10 1024.9 958.7
11 13.06 Ю 5 35 км н/о +12.2 -0.6 41 +10 +10 1024.6 958.5
12 13.06 ЮЗ 4-6
{9}
40 км н/о +12.5 -0.6 40 +11 +11 1024.2 958.2
13 13.06 ЮЗ 4 40 км н/о +13.3 -0.5 39 +12 +12 1023.6 957.8
14 13.06 ЮЗ 4-7
{7}
45 км н/о +13.6 -0.1 39 +12 +12 1023.2 957.5
15 13.06 З 3-7
{7}
40 км н/о +13.7 0.0 39 +13 +13 1022.8 957.2
16 13.06 В 4 35 км н/о +14.0 +1.0 41 +13 +13 1022.4 956.9
17 13.06 Ю 2-5
{5}
45 км н/о +13.5 +0.1 40 +13 +13 1022.2 956.6
18 13.06 Ю 3-4
{5}
50 км н/о +13.0 +0.3 42 +12 +12 1022.2 956.4 +7.6 +15.9
19 13.06 ЮЗ 3 50 км н/о +12.6 +0.7 44 +12 +12 1022.0 956.2
20 13.06 ЮЗ 3 50 км н/о +12.2 +1.5 48 +11 +11 1022.0 956.1
21 13.06 З 5-5
{6}
50 км н/о +10.7 +1.8 54 +8 +8 1022.2 955.9
22 13.06 З 5 50 км н/о +10.1 +1.3 54 +7 +7 1022.3 955.9
23 13.06 З 6-6
{7}
50 км н/о +9.8 +1.1 55 +7 +7 1022.3 955.8
00 14.06 З 6-6
{6}
50 км н/о +9.4 +1.4 57 +6 +6 1021.9 955.3
01 14.06 З 6 50 км н/о +9.2 +1.6 59 +6 +6 1021.9 955.3
02 14.06 З 5 50 км н/о +9.1 +1.8 60 +6 +6 1021.5 954.9
03 14.06 З 6-6
{7}
50 км н/о +9.3 +1.7 59 +6 +6 1020.8 954.3
04 14.06 З 6 50 км н/о +9.7 +2.2 60 +6 +6 1020.5 954.1
05 14.06 З 4-6
{6}
50 км н/о +10.9 +2.9 58 +9 +9 1019.9 953.9
06 14.06 СЗ 4-5
{6}
40 км н/о +12.7 +2.7 51 +11 +11 1019.1 953.5 +8.7 +13.1
07 14.06 З 3-6
{7}
40 км н/о +13.2 +1.8 46 +12 +12 1018.8 953.3
08 14.06 СЗ 4 35 км н/о +14.2 +0.8 40 +13 +13 1018.2 953.0
09 14.06 З 3-7
{7}
35 км н/о +14.9 +1.6 40 +14 +14 1017.8 952.7
10 14.06 З 4 35 км н/о +15.9 +1.4 37 +15 +15 1017.1 952.3
11 14.06 СЗ 6 40 км н/о +16.3 +1.1 36 +15 +15 1016.7 952.0
12 14.06 З 6-9
{9}
45 км н/о +17.1 +1.9 36 +16 +16 1015.8 951.3
13 14.06 З 6 45 км н/о +17.3 +1.5 34 +17 +17 1015.1 950.7
14 14.06 СЗ 6 40 км н/о +18.8 +1.8 32 +18 +18 1014.2 950.3
15 14.06 СЗ 7-9
{10}
45 км н/о +18.9 +1.2 31 +18 +18 1013.6 949.7
16 14.06 СВ 9 45 км н/о +18.5 +2.3 34 +18 +18 1013.4 949.4
17 14.06 СВ 8 45 км н/о +17.1 +0.2 32 +16 +16 1013.8 949.5
18 14.06 СВ 10-14
{14}
50 км н/о +15.1 -0.8 34 +13 +13 1014.4 949.6 +12.4 +19.6
19 14.06 СВ 10 45 км н/о +13.1 -0.7 39 +10 +10 1015.0 949.8
20 14.06 СВ 7 45 км н/о +11.0 -1.1 43 +8 +8 1015.8 950.0
21 14.06 СВ 7-8
{12}
50 км н/о +9.3 -1.9 45 +6 +6 1016.6 950.4
22 14.06 СВ 9-12
{12}
50 км н/о +7.7 -0.8 55 +3 +3 1017.1 950.5
23 14.06 СВ 9 50 км н/о +6.2 +0.4 66 +1 +1 1017.5 950.5
00 15.06 СВ 7-9
{13}
50 км н/о +5.2 +1.0 74 -0 -0 1017.9 950.7
01 15.06 СВ 8 50 км н/о +5.0 +1.5 78 -1 -1 1017.9 950.6
02 15.06 В 6-8
{9}
50 км н/о +5.0 +1.7 79 0 0 1018.4 951.0
03 15.06 В 4-6
{8}
50 км н/о +5.6 +2.0 78 +2 +2 1018.1 950.9
04 15.06 СВ 3 45 км н/о +6.5 +2.1 73 +4 +4 1018.0 951.0
05 15.06 С 3 50 км н/о +6.9 +1.9 70 +4 +4 1017.7 950.9
06 15.06 З 1-3
{4}
40 км н/о +8.3 +2.4 66 +8 +8 1017.2 950.8 +4.9 +15.1
07 15.06 СЗ 2-4
{4}
40 км н/о +9.6 +2.0 59 +8 +8 1017.0 950.9
08 15.06 СЗ 2 30 км н/о +11.1 +1.5 52 +10 +10 1016.6 950.8
09 15.06 ЮЗ 2-3
{4}
35 км н/о +13.0 +0.6 43 +13 +13 1015.8 950.5
10 15.06 З 3-5
{5}
40 км н/о +14.0 +1.7 43 +13 +13 1015.4 950.3
11 15.06 СЗ 3 40 км н/о +15.2 +1.9 41 +15 +15 1014.9 950.1
12 15.06 СЗ 5-7
{7}
40 км н/о +15.8 +0.4 35 +15 +15 1014.4 949.7
13 15.06 З 5 40 км н/о +17.0 +0.5 33 +16 +16 1013.7 949.3
14 15.06 З 7-9
{10}
40 км н/о +17.1 +0.2 32 +16 +16 1013.2 948.9
15 15.06 З 7-10
{12}
45 км н/о +18.1 -0.5 28 +17 +17 1012.4 948.4
16 15.06 З 6 45 км н/о +18.5 -0.2 28 +18 +18 1011.9 948.0
17 15.06 З 6 40 км н/о +19.0 +0.4 29 +19 +19 1011.3 947.5
18 15.06 З 5-6
{8}
45 км н/о +19.3 +0.4 28 +19 +19 1010.7 947.0 +8.2 +19.6
19 15.06 С 5 45 км н/о +17.4 +0.9 33 +17 +17 1010.9 946.8
20 15.06 С 5 50 км н/о +16.6 +0.4 33 +16 +16 1011.0 946.7
21 15.06 С 6-7
{8}
50 км н/о +15.1 -2.2 30 +14 +14 1011.3 946.7
22 15.06 С 6 50 км н/о +13.8 -3.2 31 +12 +12 1011.8 946.9
23 15.06 С 6-8
{9}
50 км н/о +12.6 -0.9 39 +10 +10 1012.1 947.0
00 16.06 С 5-7
{9}
50 км н/о +11.7 +0.4 46 +10 +10 1012.2 946.8
01 16.06 СЗ 6 50 км н/о +11.0 +0.9 50 +8 +8 1012.2 946.6
02 16.06 СЗ 6 50 км н/о +10.6 +1.1 52 +8 +8 1012.2 946.5
03 16.06 СЗ 5-8
{8}
50 км н/о +11.0 +1.0 50 +9 +9 1011.9 946.4
04 16.06 С 6 50 км н/о +11.3 0.0 46 +9 +9 1011.8 946.3
05 16.06 С 7-9
{10}
50 км н/о +12.1 0.0 43 +10 +10 1011.8 946.5
06 16.06 С 4-7
{9}
45 км н/о +12.6 +0.7 44 +11 +11 1011.9 946.8 +10.5 +19.3
07 16.06 СВ 5-8
{9}
35 км н/о +13.7 +1.1 42 +12 +12 1011.8 946.9
08 16.06 СВ 5 30 км н/о +15.0 +1.8 41 +14 +14 1011.5 946.9
09 16.06 С 5-9
{9}
35 км н/о +14.2 0.0 38 +13 +13 1011.7 946.9
10 16.06 СВ 6 40 км н/о +16.2 +0.5 34 +15 +15 1011.1 946.8
11 16.06 СВ 5 40 км н/о +17.2 -0.1 31 +17 +17 1010.8 946.7
12 16.06 СВ 6-9
{9}
35 км н/о +17.7 +0.9 32 +17 +17 1010.6 946.6
13 16.06 С 6 45 км н/о +16.4 0.0 33 +15 +15 1010.8 946.5
14 16.06 С 4-8
{9}
45 км н/о +16.8 -2.0 28 +16 +16 1010.5 946.4
15 16.06 СВ 6-9
{9}
40 км н/о +17.4 +0.7 32 +17 +17 1010.3 946.2
16 16.06 СВ 7-9
{10}
40 км н/о +16.3 -0.7 31 +15 +15 1010.5 946.2
17 16.06 С 7 50 км н/о +15.2 -0.2 35 +14 +14 1010.6 946.1
18 16.06 СВ 6-8
{9}
45 км н/о +14.3 -0.3 37 +13 +13 1010.8 946.0 +12.4 +18.0
19 16.06 СВ 7 45 км н/о +12.7 +1.7 47 +10 +10 1011.0 945.9
20 16.06 В 7-9
{9}
50 км н/о +11.1 +0.9 49 +8 +8 1011.1 945.6
21 16.06 В 8-10
{10}
50 км н/о +9.7 -1.0 47 +6 +6 1011.2 945.4
22 16.06 В 7 50 км н/о +8.8 -0.6 52 +5 +5 1011.3 945.3
23 16.06 СВ 7 50 км н/о +7.9 -0.9 54 +4 +4 1011.3 945.1
00 17.06 СВ 7-9
{9}
50 км н/о +7.2 -1.2 55 +3 +3 1011.3 945.0

 

Местоположение метеостанции Муонио Саммалтунтури (Финляндия): широта 67.97 долгота 24.12 высота над уровнем моря 565 м.

В архиве по умолчанию представлена погода в Муонио Саммалтунтури за последнюю неделю. Архивные данные за месяц целиком и за предыдущие месяцы, начиная с января 2011 года, Вы можете получить, выбрав интересующий диапазон дат из раскрывающегося списка и нажав кнопку "Ввод!".


*Определитесь, кто Вы:
робот инопланетянин человек

Внимание! Время в таблицах - всемирное. Для получения местного времени необходимо прибавить поправку, которая равна 1 ч.

Смотрите также архив погоды в соседних городах и на ближайших метеорологических станциях:

Погода в Киттиля Ломполонвуома (Финляндия) (5 км)
Погода в Киттила Кенттарова (Финляндия) (5 км)
Погода в Киттила Маторова (Финляндия) (6 км)
Погода в Муонио Лаукукеро (Финляндия) (11 км)
Погода в Муонио Аламуонио (Финляндия) (18 км)
Погода в Киттила Левитунтури (Финляндия) (37 км)
Погода в Киттиля (Финляндия) (43 км)
Погода в Киттиля (Финляндия) (48 км)
Погода в Паркаломполо (Швеция) (60 км)
Погода в Киттила Покка (Финляндия) (72 км)

Пояснения к столбцам:

Ветер - указаны скорость ветра в м/с - средняя за 10 мин, порывы в срок и между сроками (в фигурных скобках) и направление, откуда дует ветер: С - северный, СВ - северо-восточный, В - восточный, ЮВ - юго-восточный, Ю - южный, ЮЗ - юго-западный, З - западный, СЗ - северо-западный.
Видимость - горизонтальная дальность видимости в метрах или километрах. При видимости от 1 до 10 км при отсутствии осадков обычно наблюдается дымка, при ухудшении видимости до 1 км и менее - туман. В сухую погоду видимость может ухудшаться дымом, пылью или мглою.
Явления - указаны атмосферные явления, наблюдавшиеся в срок или в последний час перед сроком; фигурными скобками обозначены явления, наблюдавшиеся между сроками (за 1-3 часа до срока); квадратными скобками обозначены град или гололедные отложения с указанием их диаметра в мм.
Облачность - указаны через наклонную черту общая и нижняя облачность в баллах и высота нижней границы облаков в метрах; квадратными скобками обозначены формы облаков: Ci - перистые, Cs - перисто-слоистые, Cc - перисто-кучевые, Ac - высококучевые, As - высокослоистые, Sc - слоисто-кучевые, Ns - слоисто-дождевые, Cu - кучевые, Cb - кучево-дождевые. Подробнее классификацию облаков см. в Атласе облаков (PDF).
T - Температура воздуха - температура, измеренная на высоте 2 м над землей.
Td - Температура точки росы - температура, при понижении до которой содержащийся в воздухе водяной пар достигнет насыщения.
f - Относительная влажность воздуха - влажноcть воздуха, измеренная на высоте 2 м над землей.
Te - Эффективная температура - температура, которую ощущает одетый по сезону человек в тени. Характеристика душности погоды. При расчете учитывается влияние влажности воздуха и скорости ветра на теплоощущения человека.
Tes - Эффективная температура на солнце - температура, которую ощущает человек, с поправкой на солнечный нагрев. Характеристика знойности погоды. Зависит от высоты солнца над горизонтом, облачности и скорости ветра. Ночью, в пасмурную погоду, а также при ветре 12 м/с и более поправка равна нулю.
P - Атмосферное давление - приведенное к уровню моря атмосферное давление.
Po - Атмосферное давление - измеренное на уровне метеостанции атмосферное давление.
Tmin - Минимальная температура - минимум температуры воздуха на высоте 2 м над землей.
Tmax - Максимальная температура - максимум температуры воздуха на высоте 2 м над землей.
R - Количество осадков - Количество выпавших осадков за период времени, мм. При наведении курсора мыши на число - период времени, за который выпало указанное количество осадков.
R24 - Количество осадков - Количество выпавших осадков за 24 часа, мм.
S - Снежный покров - Высота снежного покрова, см. При наведении курсора мыши на число - состояние снежного покрова и степень покрытия местности в баллах.